Back to catalog

STARLINK-37249

AliveCommunicationsSSO
NORAD 68625·PAYLOAD·🇺🇸 United States

Launched Apr 5, 2026 from Vandenberg Space Force Base

Loading…

Next Passes (next 24 hours)

TLE

FreshSource: CelesTrak SupGP

Epoch: Sep 14, 2026, 21:33 UTC

1 68625C 26073Z   26257.89840278  .00086690  00000+0  26919-2 0  2577
2 68625  97.2853  96.0338 0001684  95.9368 304.7127 15.33384963    11

Track STARLINK-37249 in real time with AllMySat

Download on the App Store